TimeEDT,TemperatureF,Dew PointF,Humidity,Sea Level PressureIn,VisibilityMPH,Wind Direction,Wind SpeedMPH,Gust SpeedMPH,PrecipitationIn,Events,Conditions,WindDirDegrees,DateUTC
12:56 AM,66.0,55.9,70,29.87,10.0,WSW,15.0,-,N/A,,Clear,240,2013-09-08 04:56:00
1:56 AM,66.0,57.0,73,29.85,10.0,WSW,11.5,-,N/A,,Overcast,240,2013-09-08 05:56:00
2:56 AM,66.0,59.0,78,29.84,10.0,WSW,12.7,-,0.00,Rain,Light Rain,240,2013-09-08 06:56:00
3:56 AM,64.9,60.1,84,29.83,10.0,SW,11.5,-,0.00,,Overcast,230,2013-09-08 07:56:00
4:56 AM,66.0,61.0,84,29.79,10.0,SW,6.9,-,N/A,,Mostly Cloudy,220,2013-09-08 08:56:00
5:56 AM,66.9,61.0,81,29.79,10.0,WSW,10.4,-,N/A,,Overcast,240,2013-09-08 09:56:00
6:56 AM,66.9,63.0,87,29.78,10.0,SW,10.4,-,N/A,,Partly Cloudy,220,2013-09-08 10:56:00
7:56 AM,70.0,63.0,78,29.78,10.0,WSW,11.5,-,N/A,,Scattered Clouds,250,2013-09-08 11:56:00
8:56 AM,72.0,61.0,68,29.76,10.0,WSW,10.4,-,N/A,,Scattered Clouds,250,2013-09-08 12:56:00
9:56 AM,75.0,60.1,60,29.75,10.0,WSW,13.8,-,N/A,,Partly Cloudy,240,2013-09-08 13:56:00
10:56 AM,73.0,59.0,61,29.75,10.0,West,12.7,17.3,N/A,,Overcast,260,2013-09-08 14:56:00
11:56 AM,75.9,60.1,58,29.74,10.0,WNW,10.4,-,N/A,,Clear,290,2013-09-08 15:56:00
12:56 PM,73.0,61.0,66,29.75,10.0,North,6.9,-,N/A,,Overcast,360,2013-09-08 16:56:00
1:56 PM,73.0,61.0,66,29.76,10.0,NNE,11.5,-,N/A,,Overcast,20,2013-09-08 17:56:00
2:56 PM,73.9,60.1,62,29.77,10.0,North,17.3,24.2,N/A,,Mostly Cloudy,350,2013-09-08 18:56:00
3:56 PM,71.1,59.0,66,29.80,10.0,North,17.3,23.0,N/A,,Mostly Cloudy,360,2013-09-08 19:56:00
4:56 PM,70.0,53.1,55,29.83,10.0,NNE,12.7,27.6,N/A,,Clear,20,2013-09-08 20:56:00
5:56 PM,68.0,51.1,55,29.87,10.0,North,11.5,19.6,N/A,,Clear,10,2013-09-08 21:56:00
6:56 PM,64.0,45.0,50,29.90,10.0,North,10.4,18.4,N/A,,Clear,10,2013-09-08 22:56:00
7:56 PM,63.0,45.0,52,29.95,10.0,North,13.8,20.7,N/A,,Clear,360,2013-09-08 23:56:00
8:56 PM,62.1,43.0,50,29.99,10.0,North,10.4,17.3,N/A,,Clear,350,2013-09-09 00:56:00
9:56 PM,61.0,42.1,50,30.02,10.0,North,11.5,-,N/A,,Clear,360,2013-09-09 01:56:00
10:56 PM,61.0,42.1,50,30.05,10.0,North,11.5,21.9,N/A,,Clear,360,2013-09-09 02:56:00
11:56 PM,60.1,43.0,53,30.06,10.0,North,9.2,-,N/A,,Clear,350,2013-09-09 03:56:00